Location: Walton
(43.6794°N, 81.3017°W)
Time: 23:59:13
(UTC+00:00)

Cosmos 2180 Rocket - Pass Details

Date: 13 March 2026
Orbit: 952 x 1004 km, 82.9° (Epoch: 14 April)

Event Time Altitude Azimuth Distance (km) Brightness Sun altitude
Rises 00:05:14 0° 343° (NNW) 3,640 7.8 -7.6°
Reaches altitude 10° 00:07:58 10° 334° (NNW) 2,688 7.2 -8.1°
Maximum altitude 00:13:19 33° 273° (W) 1,551 6.5 -9.0°
Drops below altitude 10° 00:18:40 10° 212° (SSW) 2,677 7.2 -10.0°
Sets 00:21:24 0° 203° (SSW) 3,623 7.7 -10.5°
